Retour au catalogue

STARLINK-32620

ActifCommunicationsVLEO
NORAD 61928·PAYLOAD·🇺🇸 United States

Lancé Nov 11, 2024 depuis Cape Canaveral Space Force Station

Loading…

Prochains Passages (prochaines 24 heures)

TLE

FraisSource: CelesTrak SupGP

Époque: Sep 15, 2026, 02:34 UTC

1 61928C 24207S   26258.10743056  .00020634  00000+0  74727-3 0  2582
2 61928  42.9999 292.0129 0001347 262.8209   2.3280 15.27572116    12

Suivez STARLINK-32620 en temps réel avec AllMySat

Download on the App Store